Time,TemperatureF,DewpointF,PressureIn,WindDirection,WindDirectionDegrees,WindSpeedMPH,WindSpeedGustMPH,Humidity,HourlyPrecipIn,Conditions,Clouds,dailyrainin,SolarRadiationWatts/m^2,SoftwareType,DateUTC
2013-04-16 00:22:00,39.0,31.0,-100.00,NNE,33,12.0,18.0,72,0.00,,,0.00,0.000000,,2013-04-16 05:22:00,
2013-04-16 00:32:00,39.0,31.0,-100.00,NNE,33,12.0,18.0,72,0.00,,,0.00,0.000000,,2013-04-16 05:32:00,
2013-04-16 00:42:00,39.0,31.0,-100.00,NNE,33,12.0,18.0,72,0.00,,,0.00,0.000000,,2013-04-16 05:42:00,
2013-04-16 00:52:00,39.0,31.0,-100.00,NNE,33,12.0,18.0,72,0.00,,,0.00,0.000000,,2013-04-16 05:52:00,
2013-04-16 01:22:00,38.0,29.0,-100.00,NNE,27,11.0,19.0,69,0.00,,,0.00,0.000000,,2013-04-16 06:22:00,
2013-04-16 01:32:00,38.0,29.0,-100.00,NNE,27,11.0,19.0,69,0.00,,,0.00,0.000000,,2013-04-16 06:32:00,
2013-04-16 01:42:00,38.0,29.0,-100.00,NNE,27,11.0,19.0,69,0.00,,,0.00,0.000000,,2013-04-16 06:42:00,
2013-04-16 01:52:00,38.0,29.0,-100.00,NNE,27,11.0,19.0,69,0.00,,,0.00,0.000000,,2013-04-16 06:52:00,
2013-04-16 02:22:00,37.0,29.0,-100.00,NNE,20,13.0,20.0,72,0.00,,,0.00,0.000000,,2013-04-16 07:22:00,
2013-04-16 02:32:00,37.0,29.0,-100.00,NNE,20,13.0,20.0,72,0.00,,,0.00,0.000000,,2013-04-16 07:32:00,
2013-04-16 02:42:00,37.0,29.0,-100.00,NNE,20,13.0,20.0,72,0.00,,,0.00,0.000000,,2013-04-16 07:42:00,
2013-04-16 02:53:00,37.0,29.0,-100.00,NNE,20,13.0,20.0,72,0.00,,,0.00,0.000000,,2013-04-16 07:53:00,
2013-04-16 03:22:00,37.0,30.0,-100.00,NNE,22,10.0,21.0,77,0.00,,,0.00,0.000000,,2013-04-16 08:22:00,
2013-04-16 03:32:00,37.0,30.0,-100.00,NNE,22,10.0,21.0,77,0.00,,,0.00,0.000000,,2013-04-16 08:32:00,
2013-04-16 03:42:00,37.0,30.0,-100.00,NNE,22,10.0,21.0,77,0.00,,,0.00,0.000000,,2013-04-16 08:42:00,
2013-04-16 03:52:00,37.0,30.0,-100.00,NNE,22,10.0,21.0,77,0.00,,,0.00,0.000000,,2013-04-16 08:52:00,
2013-04-16 04:22:00,36.0,29.0,-100.00,NNE,28,10.0,15.0,76,0.00,,,0.00,0.000000,,2013-04-16 09:22:00,
2013-04-16 04:33:00,36.0,29.0,-100.00,NNE,28,10.0,15.0,76,0.00,,,0.00,0.000000,,2013-04-16 09:33:00,
2013-04-16 04:42:00,36.0,29.0,-100.00,NNE,28,10.0,15.0,76,0.00,,,0.00,0.000000,,2013-04-16 09:42:00,
2013-04-16 04:52:00,36.0,29.0,-100.00,NNE,28,10.0,15.0,76,0.00,,,0.00,0.000000,,2013-04-16 09:52:00,
2013-04-16 05:23:00,36.0,30.0,-100.00,NNE,20,7.0,15.0,79,0.00,,,0.00,0.000000,,2013-04-16 10:23:00,
2013-04-16 05:33:00,36.0,30.0,-100.00,NNE,20,7.0,15.0,79,0.00,,,0.00,0.000000,,2013-04-16 10:33:00,
2013-04-16 05:42:00,36.0,30.0,-100.00,NNE,20,7.0,15.0,79,0.00,,,0.00,0.000000,,2013-04-16 10:42:00,
2013-04-16 05:52:00,36.0,30.0,-100.00,NNE,20,7.0,15.0,79,0.00,,,0.00,0.000000,,2013-04-16 10:52:00,
2013-04-16 06:22:00,35.0,30.0,-100.00,NNE,23,9.0,14.0,82,0.00,,,0.00,0.000000,,2013-04-16 11:22:00,
2013-04-16 06:32:00,35.0,30.0,-100.00,NNE,23,9.0,14.0,82,0.00,,,0.00,0.000000,,2013-04-16 11:32:00,
2013-04-16 06:42:00,35.0,30.0,-100.00,NNE,23,9.0,14.0,82,0.00,,,0.00,0.000000,,2013-04-16 11:42:00,
2013-04-16 06:52:00,35.0,30.0,-100.00,NNE,23,9.0,14.0,82,0.00,,,0.00,0.000000,,2013-04-16 11:52:00,
2013-04-16 07:22:00,35.0,31.0,-100.00,NNE,28,10.0,16.0,85,0.00,,,0.00,0.000000,,2013-04-16 12:22:00,
2013-04-16 07:32:00,35.0,31.0,-100.00,NNE,28,10.0,16.0,85,0.00,,,0.00,0.000000,,2013-04-16 12:32:00,
2013-04-16 07:42:00,35.0,31.0,-100.00,NNE,28,10.0,16.0,85,0.00,,,0.00,0.000000,,2013-04-16 12:42:00,
2013-04-16 07:52:00,35.0,31.0,-100.00,NNE,28,10.0,16.0,85,0.00,,,0.00,0.000000,,2013-04-16 12:52:00,
2013-04-16 08:22:00,35.0,31.0,-100.00,NE,44,7.0,16.0,86,0.00,,,0.00,0.000000,,2013-04-16 13:22:00,
2013-04-16 08:32:00,35.0,31.0,-100.00,NE,44,7.0,16.0,86,0.00,,,0.00,0.000000,,2013-04-16 13:32:00,
2013-04-16 08:42:00,35.0,31.0,-100.00,NE,44,7.0,16.0,86,0.00,,,0.00,0.000000,,2013-04-16 13:42:00,
2013-04-16 08:52:00,35.0,31.0,-100.00,NE,44,7.0,16.0,86,0.00,,,0.00,0.000000,,2013-04-16 13:52:00,
2013-04-16 09:22:00,36.0,29.0,-100.00,NE,37,12.0,16.0,77,0.00,,,0.00,0.000000,,2013-04-16 14:22:00,
2013-04-16 09:32:00,36.0,29.0,-100.00,NE,37,12.0,16.0,77,0.00,,,0.00,0.000000,,2013-04-16 14:32:00,
2013-04-16 09:42:00,36.0,29.0,-100.00,NE,37,12.0,16.0,77,0.00,,,0.00,0.000000,,2013-04-16 14:42:00,
2013-04-16 09:52:00,36.0,29.0,-100.00,NE,37,12.0,16.0,77,0.00,,,0.00,0.000000,,2013-04-16 14:52:00,
2013-04-16 10:22:00,37.0,27.0,-100.00,NE,46,13.0,18.0,68,0.00,,,0.00,0.000000,,2013-04-16 15:22:00,
2013-04-16 10:33:00,37.0,27.0,-100.00,NE,46,13.0,18.0,68,0.00,,,0.00,0.000000,,2013-04-16 15:33:00,
2013-04-16 10:43:00,37.0,27.0,-100.00,NE,46,13.0,18.0,68,0.00,,,0.00,0.000000,,2013-04-16 15:43:00,
2013-04-16 10:53:00,37.0,27.0,-100.00,NE,46,13.0,18.0,68,0.00,,,0.00,0.000000,,2013-04-16 15:53:00,
2013-04-16 11:23:00,40.0,26.0,-100.00,NE,51,16.0,21.0,58,0.00,,,0.00,0.000000,,2013-04-16 16:23:00,
2013-04-16 11:32:00,40.0,26.0,-100.00,NE,51,16.0,21.0,58,0.00,,,0.00,0.000000,,2013-04-16 16:32:00,
2013-04-16 11:42:00,40.0,26.0,-100.00,NE,51,16.0,21.0,58,0.00,,,0.00,0.000000,,2013-04-16 16:42:00,
2013-04-16 11:52:00,40.0,26.0,-100.00,NE,51,16.0,21.0,58,0.00,,,0.00,0.000000,,2013-04-16 16:52:00,
2013-04-16 12:22:00,43.0,25.0,-100.00,NE,43,17.0,25.0,49,0.00,,,0.00,0.000000,,2013-04-16 17:22:00,
2013-04-16 12:32:00,43.0,25.0,-100.00,NE,43,17.0,25.0,49,0.00,,,0.00,0.000000,,2013-04-16 17:32:00,
2013-04-16 12:43:00,43.0,25.0,-100.00,NE,43,17.0,25.0,49,0.00,,,0.00,0.000000,,2013-04-16 17:43:00,
2013-04-16 12:52:00,43.0,25.0,-100.00,NE,43,17.0,25.0,49,0.00,,,0.00,0.000000,,2013-04-16 17:52:00,
2013-04-16 13:22:00,44.0,26.0,-100.00,NE,56,16.0,22.0,49,0.00,,,0.00,0.000000,,2013-04-16 18:22:00,
2013-04-16 13:32:00,44.0,26.0,-100.00,NE,56,16.0,22.0,49,0.00,,,0.00,0.000000,,2013-04-16 18:32:00,
2013-04-16 13:42:00,44.0,26.0,-100.00,NE,56,16.0,22.0,49,0.00,,,0.00,0.000000,,2013-04-16 18:42:00,
2013-04-16 13:52:00,44.0,26.0,-100.00,NE,56,16.0,22.0,49,0.00,,,0.00,0.000000,,2013-04-16 18:52:00,
2013-04-16 14:22:00,44.0,25.0,-100.00,NE,48,15.0,23.0,47,0.00,,,0.00,0.000000,,2013-04-16 19:22:00,
2013-04-16 14:32:00,44.0,25.0,-100.00,NE,48,15.0,23.0,47,0.00,,,0.00,0.000000,,2013-04-16 19:32:00,
2013-04-16 14:42:00,44.0,25.0,-100.00,NE,48,15.0,23.0,47,0.00,,,0.00,0.000000,,2013-04-16 19:42:00,
2013-04-16 14:52:00,44.0,25.0,-100.00,NE,48,15.0,23.0,47,0.00,,,0.00,0.000000,,2013-04-16 19:52:00,
2013-04-16 15:22:00,46.0,26.0,-100.00,NE,54,14.0,22.0,46,0.00,,,0.00,0.000000,,2013-04-16 20:22:00,
2013-04-16 15:32:00,46.0,26.0,-100.00,NE,54,14.0,22.0,46,0.00,,,0.00,0.000000,,2013-04-16 20:32:00,
2013-04-16 15:42:00,46.0,26.0,-100.00,NE,54,14.0,22.0,46,0.00,,,0.00,0.000000,,2013-04-16 20:42:00,
2013-04-16 15:52:00,46.0,26.0,-100.00,NE,54,14.0,22.0,46,0.00,,,0.00,0.000000,,2013-04-16 20:52:00,
2013-04-16 16:22:00,46.0,27.0,-100.00,NE,48,15.0,21.0,47,0.00,,,0.00,0.000000,,2013-04-16 21:22:00,
2013-04-16 16:32:00,46.0,27.0,-100.00,NE,48,15.0,21.0,47,0.00,,,0.00,0.000000,,2013-04-16 21:32:00,
2013-04-16 16:43:00,46.0,27.0,-100.00,NE,48,15.0,21.0,47,0.00,,,0.00,0.000000,,2013-04-16 21:43:00,
2013-04-16 16:52:00,46.0,27.0,-100.00,NE,48,15.0,21.0,47,0.00,,,0.00,0.000000,,2013-04-16 21:52:00,
2013-04-16 17:22:00,47.0,27.0,-100.00,ENE,63,16.0,23.0,46,0.00,,,0.00,0.000000,,2013-04-16 22:22:00,
2013-04-16 17:33:00,47.0,27.0,-100.00,ENE,63,16.0,23.0,46,0.00,,,0.00,0.000000,,2013-04-16 22:33:00,
2013-04-16 17:42:00,47.0,27.0,-100.00,ENE,63,16.0,23.0,46,0.00,,,0.00,0.000000,,2013-04-16 22:42:00,
2013-04-16 17:52:00,47.0,27.0,-100.00,ENE,63,16.0,23.0,46,0.00,,,0.00,0.000000,,2013-04-16 22:52:00,
2013-04-16 18:22:00,46.0,25.0,-100.00,ENE,64,15.0,21.0,44,0.00,,,0.00,0.000000,,2013-04-16 23:22:00,
2013-04-16 18:32:00,46.0,25.0,-100.00,ENE,64,15.0,21.0,44,0.00,,,0.00,0.000000,,2013-04-16 23:32:00,
2013-04-16 18:42:00,46.0,25.0,-100.00,ENE,64,15.0,21.0,44,0.00,,,0.00,0.000000,,2013-04-16 23:42:00,
2013-04-16 18:52:00,46.0,25.0,-100.00,ENE,64,15.0,21.0,44,0.00,,,0.00,0.000000,,2013-04-16 23:52:00,
2013-04-16 19:22:00,45.0,25.0,-100.00,ENE,62,14.0,20.0,46,0.00,,,0.00,0.000000,,2013-04-17 00:22:00,
2013-04-16 19:32:00,45.0,25.0,-100.00,ENE,62,14.0,20.0,46,0.00,,,0.00,0.000000,,2013-04-17 00:32:00,
2013-04-16 19:42:00,45.0,25.0,-100.00,ENE,62,14.0,20.0,46,0.00,,,0.00,0.000000,,2013-04-17 00:42:00,
2013-04-16 19:52:00,45.0,25.0,-100.00,ENE,62,14.0,20.0,46,0.00,,,0.00,0.000000,,2013-04-17 00:52:00,
2013-04-16 20:22:00,44.0,26.0,-100.00,ENE,60,11.0,19.0,49,0.00,,,0.00,0.000000,,2013-04-17 01:22:00,
2013-04-16 20:32:00,44.0,26.0,-100.00,ENE,60,11.0,19.0,49,0.00,,,0.00,0.000000,,2013-04-17 01:32:00,
2013-04-16 20:42:00,44.0,26.0,-100.00,ENE,60,11.0,19.0,49,0.00,,,0.00,0.000000,,2013-04-17 01:42:00,
2013-04-16 20:52:00,44.0,26.0,-100.00,ENE,60,11.0,19.0,49,0.00,,,0.00,0.000000,,2013-04-17 01:52:00,
2013-04-16 21:22:00,44.0,28.0,-100.00,NE,51,10.0,16.0,54,0.00,,,0.00,0.000000,,2013-04-17 02:22:00,
2013-04-16 21:32:00,44.0,28.0,-100.00,NE,51,10.0,16.0,54,0.00,,,0.00,0.000000,,2013-04-17 02:32:00,
2013-04-16 21:42:00,44.0,28.0,-100.00,NE,51,10.0,16.0,54,0.00,,,0.00,0.000000,,2013-04-17 02:42:00,
2013-04-16 21:52:00,44.0,28.0,-100.00,NE,51,10.0,16.0,54,0.00,,,0.00,0.000000,,2013-04-17 02:52:00,
2013-04-16 22:22:00,44.0,30.0,-100.00,NE,44,10.0,14.0,57,0.00,,,0.00,0.000000,,2013-04-17 03:22:00,
2013-04-16 22:33:00,44.0,30.0,-100.00,NE,44,10.0,14.0,57,0.00,,,0.00,0.000000,,2013-04-17 03:33:00,
2013-04-16 22:42:00,44.0,30.0,-100.00,NE,44,10.0,14.0,57,0.00,,,0.00,0.000000,,2013-04-17 03:42:00,
2013-04-16 22:53:00,44.0,30.0,-100.00,NE,44,10.0,14.0,57,0.00,,,0.00,0.000000,,2013-04-17 03:53:00,
2013-04-16 23:22:00,44.0,31.0,-100.00,ENE,64,9.0,15.0,60,0.00,,,0.00,0.000000,,2013-04-17 04:22:00,
2013-04-16 23:33:00,44.0,31.0,-100.00,ENE,64,9.0,15.0,60,0.00,,,0.00,0.000000,,2013-04-17 04:33:00,
2013-04-16 23:42:00,44.0,31.0,-100.00,ENE,64,9.0,15.0,60,0.00,,,0.00,0.000000,,2013-04-17 04:42:00,
2013-04-16 23:52:00,44.0,31.0,-100.00,ENE,64,9.0,15.0,60,0.00,,,0.00,0.000000,,2013-04-17 04:52:00,